(336719) = 2003 SY384 = 2010 CO149 = 2010 KM32

Discovered at Kitt Peak on 2003-09-30 by Spacewatch.

Orbit

Orbit type: Main Belt

Note: WebGL enabled browser required.

epoch2024-03-31.0
epoch JD2460400.5
perihelion date2022-03-14.87130
perihelion JD2459653.37130
argument of perihelion (°)234.45009
ascending node (°)142.88798
inclination (°)5.09673
eccentricity0.0871009
perihelion distance (AU)2.5213501
Tisserand w.r.t. Jupiter3.3
ΔV w.r.t. Earth (km/sec)10.1
semimajor axis (AU)2.7619154
mean anomaly (°)160.42931
mean daily motion (°/day)0.21472780
aphelion distance (AU)3.002
period (years)4.59
P-vector [x]0.95262196
P-vector [y]0.29981549
P-vector [z]0.05120617
Q-vector [x]-0.29939637
Q-vector [y]0.89465811
Q-vector [z]0.33158511
absolute magnitude16.74
phase slope0.15
uncertainty0
referenceMPEC 2024-E73
observations used236
oppositions15
arc length (days)7466
first opposition used2003
last opposition used2024
residual rms (arc-secs)0.79
perturbers coarse indicatorM-v
perturbers precise indicator003Ek
first observation date used2003-09-26.0
last observation date used2024-03-05.0
computer nameMPCLINUX
JD of orbit computation2456670.950933
perihelion JD uncertainty (days)1.9646E-04
argument of perihelion uncertainty (°)7.6993E-05
ascending node uncertainty (°)6.4400E-05
inclination uncertainty (°)6.9839E-06
eccentricity uncertainty 6.3942E-08
perihelion distance uncertainty (AU)1.7988E-07
Minimum Orbit Intersection Distances (in AU)
for orbit epoch: 2460400.5, reference: E2024-GH2
Mercury2.16952
Venus1.79614
Earth1.52645
Mars1.09317
Jupiter2.4253
Saturn6.30862
Uranus15.4701
Neptune27.2889

Observations

243 total observations over interval: 2003 09 26.314590 – 2024 03 05.387536
These data are available for download (format description).

Date (UT) J2000 RA J2000 Dec Magn Location Ref
2003 09 26.314590 00 49 59.354 -01 03 15.20 20.17 V 645 – Apache Point-Sloan Digital Sky Survey MPS 212534
2003 09 26.318062 00 49 59.184 -01 03 16.64 20.83   645 – Apache Point-Sloan Digital Sky Survey MPS 212534
2003 09 30.26850 00 46 59.55 -01 30 16.2 20.1 V 691 – Steward Observatory, Kitt Peak-Spacewatch MPS 212534
2003 09 30.29535 00 46 58.25 -01 30 27.2 20.1 V 691 – Steward Observatory, Kitt Peak-Spacewatch MPS 212534
2003 09 30.32128 00 46 57.00 -01 30 37.7 20.2 V 691 – Steward Observatory, Kitt Peak-Spacewatch MPS 212534
2005 01 19.25658 08 24 08.50 +16 28 56.7 20.3 V 691 – Steward Observatory, Kitt Peak-Spacewatch MPS 386872
2005 01 19.28213 08 24 07.07 +16 29 03.7 20.5 V 691 – Steward Observatory, Kitt Peak-Spacewatch MPS 386872
2005 01 19.30781 08 24 05.65 +16 29 10.7 20.3 V 691 – Steward Observatory, Kitt Peak-Spacewatch MPS 386872
2007 06 16.40374 20 26 53.14 -15 09 24.1 21.0 V 691 – Steward Observatory, Kitt Peak-Spacewatch MPS 386872
2007 06 16.42142 20 26 52.79 -15 09 25.4 20.8 V 691 – Steward Observatory, Kitt Peak-Spacewatch MPS 386872
2007 06 16.43913 20 26 52.44 -15 09 27.2 20.9 V 691 – Steward Observatory, Kitt Peak-Spacewatch MPS 386872
2008 11 02.31419 04 14 26.01 +13 05 17.1 19.8 V G96 – Mt. Lemmon Survey MPS 386872
2008 11 02.32449 04 14 25.54 +13 05 15.3 19.7 V G96 – Mt. Lemmon Survey MPS 386872
2008 11 02.33490 04 14 25.11 +13 05 13.2 19.9 V G96 – Mt. Lemmon Survey MPS 386872
2008 11 02.34521 04 14 24.61 +13 05 11.2 19.9 V G96 – Mt. Lemmon Survey MPS 386872
2008 11 21.29785 03 58 26.11 +12 09 02.1 19.7 V G96 – Mt. Lemmon Survey MPS 386872
2008 11 21.30337 03 58 25.78 +12 09 01.6 19.7 V G96 – Mt. Lemmon Survey MPS 386872
2008 11 21.30890 03 58 25.46 +12 09 00.6 19.7 V G96 – Mt. Lemmon Survey MPS 386872
2008 11 21.31455 03 58 25.14 +12 08 59.7 19.8 V G96 – Mt. Lemmon Survey MPS 386872
2009 01 01.23133 03 31 40.54 +11 57 18.2 20.2 V G96 – Mt. Lemmon Survey MPS 386872
2009 01 01.24561 03 31 40.40 +11 57 19.6 20.0 V G96 – Mt. Lemmon Survey MPS 386872
2009 01 01.25275 03 31 40.29 +11 57 20.6 20.1 V G96 – Mt. Lemmon Survey MPS 386872
2010 02 14.19026 10 59 03.72 +08 28 11.1 21.0 V 691 – Steward Observatory, Kitt Peak-Spacewatch MPS 313891
2010 02 14.20787 10 59 02.91 +08 28 17.2 21.3 V 691 – Steward Observatory, Kitt Peak-Spacewatch MPS 313891
2010 02 14.22547 10 59 02.16 +08 28 23.1 20.9 V 691 – Steward Observatory, Kitt Peak-Spacewatch MPS 313891
2010 02 20.23950 10 54 32.18 +09 06 49.4 20.8 V 691 – Steward Observatory, Kitt Peak-Spacewatch MPS 313891
2010 02 20.25715 10 54 31.29 +09 06 56.3 20.9 V 691 – Steward Observatory, Kitt Peak-Spacewatch MPS 313891
2010 02 20.27477 10 54 30.48 +09 07 02.8 20.9 V 691 – Steward Observatory, Kitt Peak-Spacewatch MPS 313891
2010 03 19.25638 10 33 30.49 +11 51 08.6 21.2 V G96 – Mt. Lemmon Survey MPS 386872
2010 03 19.26174 10 33 30.31 +11 51 09.9 21.1 V G96 – Mt. Lemmon Survey MPS 386872
2010 03 19.26708 10 33 30.06 +11 51 12.2 20.9 V G96 – Mt. Lemmon Survey MPS 386872
2010 03 19.27244 10 33 29.84 +11 51 13.1 20.9 V G96 – Mt. Lemmon Survey MPS 386872
2010 05 19.246317 10 30 31.61 +12 32 16.3   C51 – WISE MPS 328752
2010 05 19.24632 10 30 31.61 +12 32 16.0   C51 – WISE MPS 328752
2010 05 19.378622 10 30 36.09 +12 31 52.1   C51 – WISE MPS 328752
2010 05 19.510925 10 30 40.64 +12 31 25.2   C51 – WISE MPS 328752
2010 05 19.643229 10 30 45.13 +12 31 00.1   C51 – WISE MPS 328753
2010 05 19.775532 10 30 49.63 +12 30 34.2   C51 – WISE MPS 328753
2010 05 19.841622 10 30 51.95 +12 30 20.6   C51 – WISE MPS 328753
2010 05 19.907837 10 30 54.27 +12 30 07.4   C51 – WISE MPS 328753
2010 05 19.973925 10 30 56.52 +12 29 54.8   C51 – WISE MPS 328753
2010 05 20.040141 10 30 58.78 +12 29 41.6   C51 – WISE MPS 328753
2010 05 20.106229 10 31 01.04 +12 29 29.1   C51 – WISE MPS 328753
2010 05 20.238534 10 31 05.78 +12 29 02.4   C51 – WISE MPS 328753
2010 05 22.28931 10 32 19.03 +12 21 56.5   C51 – WISE MPS 329434
2010 05 22.48770 10 32 26.33 +12 21 14.4   C51 – WISE MPS 329434
2010 05 22.75231 10 32 36.23 +12 20 18.6   C51 – WISE MPS 329434
2010 05 23.01691 10 32 46.00 +12 19 20.0   C51 – WISE MPS 329434
2010 05 23.28152 10 32 55.97 +12 18 22.9   C51 – WISE MPS 329434
2011 06 06.38423 15 56 31.245 -12 43 30.12 21.0 w F51 – Pan-STARRS 1, Haleakala MPS 386872
2011 06 06.39874 15 56 30.508 -12 43 28.92 20.9 w F51 – Pan-STARRS 1, Haleakala MPS 386872
2011 06 06.41317 15 56 29.771 -12 43 27.74 20.9 w F51 – Pan-STARRS 1, Haleakala MPS 386872
2012 08 26.21018 23 23 35.70 -06 58 40.4 20.5 V 691 – Steward Observatory, Kitt Peak-Spacewatch MPS 430135
2012 08 26.22792 23 23 34.99 -06 58 47.7 20.4 V 691 – Steward Observatory, Kitt Peak-Spacewatch MPS 430135
2012 08 26.24567 23 23 34.31 -06 58 54.2 20.1 V 691 – Steward Observatory, Kitt Peak-Spacewatch MPS 430135
2012 09 12.54792 23 10 47.89 -08 59 58.0 19.9 V E12 – Siding Spring Survey MPS 431830
2012 09 12.56062 23 10 47.20 -09 00 02.7 19.3 V E12 – Siding Spring Survey MPS 431830
2012 09 12.57339 23 10 46.56 -09 00 07.5 19.9 V E12 – Siding Spring Survey MPS 431830
2012 09 12.58610 23 10 46.02 -09 00 13.6 20.0 V E12 – Siding Spring Survey MPS 431830
2012 09 16.30654 23 07 56.17 -09 25 08.7 20.1 V G96 – Mt. Lemmon Survey MPS 433294
2012 09 16.31168 23 07 55.84 -09 25 10.4 19.4 V G96 – Mt. Lemmon Survey MPS 433294
2012 09 16.31688 23 07 55.70 -09 25 11.8 19.4 V G96 – Mt. Lemmon Survey MPS 433294
2012 09 16.32213 23 07 55.41 -09 25 14.8 19.8 V G96 – Mt. Lemmon Survey MPS 433294
2013 12 30.38906 07 10 09.135 +17 24 33.09 20.4 w F51 – Pan-STARRS 1, Haleakala MPS 495172
2013 12 30.40419 07 10 08.253 +17 24 35.58 20.4 w F51 – Pan-STARRS 1, Haleakala MPS 495172
2013 12 30.41937 07 10 07.368 +17 24 38.23 20.3 w F51 – Pan-STARRS 1, Haleakala MPS 495172
2015 01 23.59846 13 16 33.615 -04 13 02.82 22.3 w F51 – Pan-STARRS 1, Haleakala MPS 569421
2015 01 23.61011 13 16 33.909 -04 13 03.36 21.9 w F51 – Pan-STARRS 1, Haleakala MPS 569421
2015 01 23.62174 13 16 34.203 -04 13 03.46 22.0 w F51 – Pan-STARRS 1, Haleakala MPS 569421
2015 03 21.48612 13 07 56.716 -01 09 53.81 21.1 w F51 – Pan-STARRS 1, Haleakala MPS 595015
2015 03 21.49741 13 07 56.217 -01 09 49.80 21.0 w F51 – Pan-STARRS 1, Haleakala MPS 595015
2015 03 21.50871 13 07 55.719 -01 09 45.65 21.0 w F51 – Pan-STARRS 1, Haleakala MPS 595015
2015 03 22.28828 13 07 22.84 -01 05 00.0   691 – Steward Observatory, Kitt Peak-Spacewatch MPS 595015
2015 03 22.31709 13 07 21.60 -01 04 50.2   691 – Steward Observatory, Kitt Peak-Spacewatch MPS 595015
2015 03 22.33595 13 07 20.73 -01 04 42.5   691 – Steward Observatory, Kitt Peak-Spacewatch MPS 595015
2015 03 22.44780 13 07 16.000 -01 04 01.17 20.8 w F51 – Pan-STARRS 1, Haleakala MPS 595015
2015 03 22.45938 13 07 15.484 -01 03 56.99 20.8 w F51 – Pan-STARRS 1, Haleakala MPS 595015
2015 03 22.47106 13 07 14.965 -01 03 52.70 20.8 w F51 – Pan-STARRS 1, Haleakala MPS 595015
2015 03 22.48270 13 07 14.446 -01 03 48.21 20.9 w F51 – Pan-STARRS 1, Haleakala MPS 595015
2015 03 24.36613 13 05 52.79 -00 52 13.7 20.4 r G45 – Space Surveillance Telescope, Atom Site MPS 600492
2015 03 24.38211 13 05 51.99 -00 52 07.7 20.6 r G45 – Space Surveillance Telescope, Atom Site MPS 600492
2015 03 24.39043 13 05 51.65 -00 52 05.1 20.3 r G45 – Space Surveillance Telescope, Atom Site MPS 600492
2015 03 24.39905 13 05 51.26 -00 52 01.4 20.3 r G45 – Space Surveillance Telescope, Atom Site MPS 600492
2015 03 25.44553 13 05 05.104 -00 45 33.05 21.0 w F51 – Pan-STARRS 1, Haleakala MPS 595015
2015 03 25.46038 13 05 04.420 -00 45 27.56 21.0 w F51 – Pan-STARRS 1, Haleakala MPS 595015
2015 03 25.47538 13 05 03.723 -00 45 21.99 21.2 w F51 – Pan-STARRS 1, Haleakala MPS 595015
2015 03 27.28564 13 03 42.36 -00 34 10.7 21.1 V 691 – Steward Observatory, Kitt Peak-Spacewatch MPS 595015
2015 03 27.30452 13 03 41.48 -00 34 03.8 20.8 V 691 – Steward Observatory, Kitt Peak-Spacewatch MPS 595015
2015 03 27.32335 13 03 40.58 -00 33 56.4 20.7 V 691 – Steward Observatory, Kitt Peak-Spacewatch MPS 595015
2015 03 27.46285 13 03 34.217 -00 33 04.21 20.6 w F51 – Pan-STARRS 1, Haleakala MPS 597542
2015 03 27.47793 13 03 33.502 -00 32 58.59 20.5 w F51 – Pan-STARRS 1, Haleakala MPS 597542
